Regional Weather Roundup
Issued by NWS New Orleans/Baton Rouge, LA

Home | Current Version | Previous Version | Text Only | Print | Product List | Glossary On
Versions: 1 2 3 4 5 6 7 8 9 10 11 12 13 14 15 16 17 18 19 20 21 22 23 24 25 26 27 28 29 30 31 32 33 34 35 36 37 38 39 40 41 42 43 44 45 46 47 48 49 50
000
ASUS44 KLIX 271305
RWRLIX
NEW ORLEANS REGIONAL WEATHER ROUNDUP
NATIONAL WEATHER SERVICE NEW ORLEANS LA
700 AM CST SAT DEC 27 2014

NOTE: "FAIR" INDICATES FEW OR NO CLOUDS BELOW 12,000 FEET WITH NO
      SIGNIFICANT WEATHER AND/OR OBSTRUCTIONS TO VISIBILITY.
      SKY/WX - SKY CONDITION AND SIGNIFICANT WEATHER.
      TMP - AIR TEMPERATURE.     DP    - DEWPOINT TEMPERATURE.
      RH  - RELATIVE HUMIDITY.   PRES  - PRESSURE.
      HI  - HEAT INDEX.          WCI   - WIND CHILL INDEX.

*  THESE STATIONS ARE NOT NWS OR FAA STATIONS AND ARE NOT UNDER
   NWS QUALITY CONTROL.

LAZ038-040-048-061>063-065>067-069-271400-
SOUTHEAST LOUISIANA

CITY           SKY/WX    TMP DP  RH WIND       PRES   REMARKS
N.O. AUDUBON     N/A     66  66 100 MISG        N/A
N.O. INTL ARPT CLOUDY    64  61  90 E7        30.13S FOG
N.O. LAKEFRONT CLOUDY    62  59  90 NE12      30.15R FOG
N.O. DOWNTOWN* CLOUDY    66  61  82 NE3       30.14S
SLIDELL        RAIN      64  62  93 CALM      30.15R FOG
BATON ROUGE    CLOUDY    61  59  93 NE5       30.11R
BOOTHVILLE     CLOUDY    67  65  93 SE9       30.14R
BELLE CHASSE   CLOUDY    65  64  97 SE8       30.12S FOG
BOGALUSA*      DRIZZLE   59  56  89 CALM      30.18S
GALLIANO*      CLOUDY    66  64  94 MISG      30.12R FOG
NEW ROADS*     CLOUDY    60  60  97 E5        30.11R
GONZALES*      HVY RAIN  62  62 100 E5        30.11S
HAMMOND*       NOT AVBL
HOUMA*         LGT RAIN  66  66 100 E7        30.10S FOG
PORT FOURCHON* CLOUDY    68  66  94 SE15      30.13S

$$

MSZ070-080>082-271400-
SOUTHERN MISSISSIPPI

CITY           SKY/WX    TMP DP  RH WIND       PRES   REMARKS
MCCOMB         CLOUDY    56  55  97 E7        30.15R
GULFPORT       CLOUDY    64  60  87 E17       30.17R
BILOXI         LGT RAIN  64  61  88 SE14      30.17S
PASCAGOULA     CLOUDY    61  58  90 E5        30.19R

$$

COASTAL OBSERVATIONS
LAKE AND NEARSHORE STATIONS

STATION/POSITION TIME  TEMP    WIND        PRES    WAVE
                       AIR SEA DIR/SP/G            HT/PER
                 (UTC) (F)     (DEG/KT/KT) (MB)    (FT/S)
PASCAGOULA       1300   64     110/ 13/ 18 1021.3
WAVELAND YACHT   1300   62     120/ 14/ 16 1020.5
GRAND ISLE       1300   67 63  130/  9/ 13 1020.2
SOUTHWEST PASS   1300   69                 1020.3
NEW CANAL        1300   60 57   70/  8/  9 1020.7
SHELL BEACH      1300   64 59  120/ 10/ 12 1020.5

OFFSHORE STATIONS

STATION/POSITION TIME  TEMP    WIND        PRES    WAVE
                       AIR SEA DIR/SP/G            HT/PER
                 (UTC) (F)     (DEG/KT/KT) (MB)    (FT/S)
64 S DAUPHIN ISL 1300   71 74  130/ 17/ 21 1021.2    6/ 6

$$



USA.gov is the U.S. government's official web portal to all federal, state and local government web resources and services.